Regional Weather Roundup
Issued by NWS

Home | Current Version | Previous Version | Graphics & Text | Print | Product List | Glossary On
Versions: 1 2 3 4 5 6 7 8 9 10 11 12 13 14 15 16 17 18 19 20 21 22 23 24 25 26 27 28 29 30 31 32 33 34 35 36 37 38 39 40 41 42 43 44 45 46 47 48 49 50
000
ASUS43 KMKX 271900
RWRWI

WISCONSIN REGIONAL WEATHER ROUNDUP
NATIONAL WEATHER SERVICE MILWAUKEE/SULLIVAN WI
200 PM CDT FRI MAY 27 2016

NOTE: "FAIR" INDICATES FEW OR NO CLOUDS BELOW 12,000 FEET WITH NO
SIGNIFICANT WEATHER AND/OR OBSTRUCTIONS TO VISIBILITY.

WIZ001-002-006>008-014>016-023>028-272000-
NORTHWEST WISCONSIN

CITY           SKY/WX    TMP DP  RH WIND       PRES   REMARKS
SUPERIOR ARPT  DRIZZLE   47  47  99 E6        29.91S
ASHLAND        CLOUDY    55  50  83 N7        29.90S
HAYWARD        CLOUDY    67  55  65 E7        29.86F
SIREN          DRIZZLE   65  62  88 NE6       29.83S
CUMBERLAND     CLOUDY    66  55  68 NE9       29.82F
RICE LAKE      PTSUNNY   69  56  65 NE9       29.83F
CHETEK         CLOUDY    68  59  73 E8        29.81F
LADYSMITH      CLOUDY    70  59  68 E8        29.85F
EAU CLAIRE     NOT AVBL
MENOMONIE      CLOUDY    71  69  94 E3        29.79F
NEW RICHMOND   LGT RAIN  65  63  95 NE6       29.80F
OSCEOLA        LGT RAIN  64  64 100 N8        29.82F
$$

WIZ003>005-009-010-017-018-272000-
NORTH CENTRAL WISCONSIN

CITY           SKY/WX    TMP DP  RH WIND       PRES   REMARKS
MANITOWISH WTR NOT AVBL
ARBOR VITAE    CLOUDY    72  64  74 E3        29.89F
WOODRUFF       CLOUDY    72  64  74 E3        29.89F
RHINELANDER    CLOUDY    71  60  68 E7        29.89F
EAGLE RIVER      N/A     70  57  63 SE6       29.90S
LAND O LAKES   CLOUDY    72  58  63 SE7       29.91S
PHILLIPS       CLOUDY    66  60  82 E3        29.87F
TOMAHAWK       CLOUDY    68  60  75 E3        29.87F
MEDFORD        CLOUDY    73  62  67 SE10      29.83F
MERRILL        CLOUDY    72  63  73 E8        29.86F
$$

WIZ029-030-035-036-043>047-272000-
CENTRAL WISCONSIN

CITY           SKY/WX    TMP DP  RH WIND       PRES   REMARKS
WAUSAU         CLOUDY    74  62  66 E8        29.82F
MOSINEE        PTSUNNY   72  63  73 E9G16     29.85F
MARSHFIELD     CLOUDY    77  61  57 E14G24    29.81F
STEVENS POINT  CLOUDY    70  60  69 E12       29.85F
WAUPACA        CLOUDY    73  69  85 E6        29.86F
WAUTOMA        CLOUDY    74  65  73 SE7       29.84F
WISC RAPIDS    PTSUNNY   75  60  59 SE12      29.84F
CAMP DOUGLAS   CLOUDY    73  73 100 SE9       29.80F
$$

WIZ011>013-019>022-031-037>040-048>050-272000-
NORTHEAST WISCONSIN

CITY           SKY/WX    TMP DP  RH WIND       PRES   REMARKS
ANTIGO         CLOUDY    69  61  75 E10       29.88F
SHAWANO        LGT RAIN  69  65  88 E9        29.88F
OCONTO         CLOUDY   N/A N/A N/A CALM      29.91S
STURGEON BAY   NOT AVBL
GREEN BAY      CLOUDY    69  66  90 E7        29.87F
MANITOWOC      NOT AVBL
APPLETON       CLOUDY    70  68  94 E7        29.86F
CLINTONVILLE   CLOUDY    70  68  94 E8        29.86F
OSHKOSH        CLOUDY    69  65  86 E8        29.86S
$$

WIZ032>034-041-042-053>061-272000-
SOUTHWEST WISCONSIN

CITY           SKY/WX    TMP DP  RH WIND       PRES   REMARKS
LA CROSSE      CLOUDY    76  64  66 SE12      29.77S
SPARTA         CLOUDY    74  63  67 SE9       29.80F
VIROQUA        CLOUDY    72  63  74 SE13      29.82S
BOSCOBEL       CLOUDY    76  65  68 VRB5      29.80F
PRAIRIE DU CHI CLOUDY    71  62  73 E6        29.79F
PLATTEVILLE    CLOUDY    74  67  81 S10       29.81F
$$

WIZ056-057-062-063-064-067-068-272000-
SOUTH CENTRAL WISCONSIN

CITY           SKY/WX    TMP DP  RH WIND       PRES   REMARKS
REEDSBURG      CLOUDY    73  65  78 S3        29.82F
BARABOO/DELLS  LGT RAIN  74  63  68 SW3       29.82F
LONE ROCK      CLOUDY    77  65  66 SE5       29.80F
MINERAL POINT  CLOUDY    77  66  69 S12       29.82S
MADISON        CLOUDY    78  65  63 S9        29.81F HX  80
MIDDLETON      CLOUDY    79  65  62 SE9G16    29.82F HX  80
WATERTOWN      PTSUNNY   78  67  67 S10       29.83F HX  80
MONROE         CLOUDY    77  61  57 S15G22    29.81F
JANESVILLE     NOT AVBL
$$

WIZ051-052-058>065-066-070>072-272000-
SOUTHEAST WISCONSIN

CITY           SKY/WX    TMP DP  RH WIND       PRES   REMARKS
MILWAUKEE      PTSUNNY   75  66  73 SE14      29.85F
WAUKESHA       PTSUNNY   77  64  65 S7        29.86F
MILWAUKEE/TIMM MOSUNNY   79  63  57 SE5       29.86F HX  80
RACINE         PTSUNNY   74  64  71 S14G22    29.88F
BURLINGTON     CLOUDY    81  64  57 S12       29.85F HX  82
KENOSHA        PTSUNNY   78  67  68 SE13      29.86F HX  80
FOND DU LAC    CLOUDY    74  66  76 NE7       29.86F
SHEBOYGAN      LGT RAIN  68  65  90 SE7       29.87F FOG
WEST BEND      CLOUDY    73  68  83 CALM      29.86F
JUNEAU         LGT RAIN  71  67  88 E5        29.87S
$$

LSZ147-162-272000-
LAKE SUPERIOR

STATION/POSITION TIME  TEMP    WIND        PRES    WAVE
                       AIR SEA DIR/SP/G            HT/PER
                 (UTC) (F)     (DEG/KT/KT) (MB)    (FT/S)
W MID LAKE BUOY  1750   40 38  360/  6/  6 1013.5S   0
DEVILS ISLAND    1800   43      60/  9/  9 1013.9R
PORT WING        1820   42      10/ 12/ 13 1012.9
SAXON HARBOR     1840   46      10/  4/  6 1012.5R
$$

LMZ867-665-643>646-272000-
LAKE MICHIGAN

STATION/POSITION TIME  TEMP    WIND        PRES    WAVE
                       AIR SEA DIR/SP/G            HT/PER
                 (UTC) (F)     (DEG/KT/KT) (MB)    (FT/S)
CHAMBERS ISLAND  1800   63     330/  1/  4 1013.2R
N MID LAKE BUOY  1750   49 46   40/  8/  8 1012.7F   0
NORTHPORT PIER   1800   54     150/  8/ 12 1013.5R
SISTER BAY       1805   66     160/  8/ 11   N/A
ALGOMA LAKESHORE 1717          160/  5/  7   N/A
KEWAUNEE LAKESHO 1800   51     180/  3/  4 1012.2S
SHEBOYGAN LAKESH 1800   54     160/ 13/ 13 1012.0F
PORT WASHINGTON  1800   61     140/  4/  5 1012.5
S MID LAKE BUOY  1750   56 50  140/ 10/ 12 1012.9F   1/ 3
KENOSHA   LAKESH 1800   60     160/  9/ 11 1011.9F
$$

TC  - TEMPERATURE IN CELSIUS
VSB - VISIBILITY IN STATUTE MILES
WCI - WIND CHILL INDEX
HX  - HEAT INDEX




USA.gov is the U.S. government's official web portal to all federal, state and local government web resources and services.